Regional Weather Roundup
Issued by NWS

Home | Current Version | Previous Version | Graphics & Text | Print | Product List | Glossary On
Versions: 1 2 3 4 5 6 7 8 9 10 11 12 13 14 15 16 17 18 19 20 21 22 23 24 25 26 27 28 29 30 31 32 33 34 35 36 37 38 39 40 41 42 43 44 45 46 47 48 49 50
000
ASUS43 KBIS 261520
RWRND

NORTH DAKOTA REGIONAL WEATHER ROUNDUP
NATIONAL WEATHER SERVICE BISMARCK ND
1000 AM CDT SUN APR 26 2015

NOTE: "FAIR" INDICATES FEW OR NO CLOUDS BELOW 12,000 FEET WITH NO
SIGNIFICANT WEATHER AND/OR OBSTRUCTIONS TO VISIBILITY.


NDZ001>003-009>011-017-261600-
NORTHWEST NORTH DAKOTA

CITY           SKY/WX    TMP DP  RH WIND       PRES   REMARKS
WILLISTON      CLOUDY    42  35  76 NW12      30.08R
MINOT          CLOUDY    47  43  86 W9        30.04R
MINOT AFB      CLOUDY    44  44 100 NW9       30.04R
$$

NDZ018>021-031>035-040>046-261600-
SOUTHWEST NORTH DAKOTA

CITY           SKY/WX    TMP DP  RH WIND       PRES   REMARKS
BISMARCK       CLOUDY    48  46  93 E5        30.05R FOG
DICKINSON      CLOUDY    43  39  86 N9        30.02R
GARRISON         N/A     44  42  93 NW14      30.04R
HETTINGER ARPT LGT RAIN  43  41  93 N10       30.02R FOG
$$

NDZ004>008-012>016-024-026-027-054-261600-
NORTHEAST NORTH DAKOTA

CITY           SKY/WX    TMP DP  RH WIND       PRES   REMARKS
GRAND FORKS    MOSUNNY   53  21  28 SW9       30.12S
GRND FRKS AFB  MOSUNNY   53  23  30 S13       30.12R
DEVILS LAKE    CLOUDY    54  37  54 S9        30.08R
$$

NDZ022-023-025-028>030-036>039-047>053-261600-
SOUTHEAST NORTH DAKOTA

CITY           SKY/WX    TMP DP  RH WIND       PRES   REMARKS
FARGO          SUNNY     53   9  17 S6        30.11R
JAMESTOWN      PTSUNNY   54  38  54 S6        30.07R
$$



USA.gov is the U.S. government's official web portal to all federal, state and local government web resources and services.